Regional Weather Roundup
Issued by NWS Mobile, AL

Home | Current Version | Previous Version | Text Only | Print | Product List | Glossary On
Versions: 1 2 3 4 5 6 7 8 9 10 11 12 13 14 15 16 17 18 19 20 21 22 23 24 25 26 27
000
ASUS44 KMOB 270512
RWRMOB
REGIONAL WEATHER ROUNDUP
NATIONAL WEATHER SERVICE MOBILE AL
1200 AM CDT MON MAR 27 2017

NOTE: "FAIR" INDICATES FEW OR NO CLOUDS BELOW 12,000 FEET WITH NO
      SIGNIFICANT WEATHER AND/OR OBSTRUCTIONS TO VISIBILITY.

  * THESE STATIONS ARE PART OF THE UNIVERSITY OF SOUTH ALABAMA
    MESONET AND ARE NOT UNDER NWS OR FAA QUALITY CONTROL.

ALZ061>064-270600-
COASTAL ALABAMA

CITY           SKY/WX    TMP DP  RH WIND       PRES   REMARKS
MOBILE REG APT CLOUDY    70  67  90 S12       30.03F
BROOKLEY FIELD CLOUDY    72  71  97 S6        30.05F
USA CAMPUS*      N/A     70  66  88 CALM      30.03F
DOG RIVER*       N/A     70  70 100 S10       30.80F


CITY           SKY/WX    TMP DP  RH WIND       PRES   REMARKS
GULF SHORES    MOCLDY    69  69 100 S8        30.05S

$$

ALZ051>060-270600-
INTERIOR SOUTHWEST AND SOUTH CENTRAL ALABAMA

CITY           SKY/WX    TMP DP  RH WIND       PRES   REMARKS
GREENVILLE     MOCLDY    67  63  87 S7        30.04F
EVERGREEN      CLOUDY    68  65  90 S8        30.05F
ATMORE*          N/A     68  68 100 S9        30.06F
ANDALUSIA/OPP  CLOUDY    69  65  86 CALM      30.06F
ANDALUSIA*       N/A     66  66 100 S6        30.06F
FLORALA APT    MOCLDY    66  64  93 S3        30.08S
FLORALA*         N/A     66  66 100 CALM      30.80S

$$

FLZ001>006-270600-
WESTERN FLORIDA PANHANDLE

CITY           SKY/WX    TMP DP  RH WIND       PRES   REMARKS
PENSACOLA      CLOUDY    72  68  87 S7        30.05F
NAS PENSACOLA  MOCLDY    70  67  90 S8        30.05S
MILTON         NOT AVBL
WHTNG S FIELD  CLOUDY    72  69  90 S7        30.05F


CITY           SKY/WX    TMP DP  RH WIND       PRES   REMARKS
JAY*             N/A     68  66  94 S10       30.05F
DUKE FIELD     PTCLDY    68  67  95 S3        30.05F
CRESTVIEW      CLOUDY    68  66  93 CALM      30.07F
VALPARAISO     PTCLDY    67  67  98 SE5       30.06F FOG
DESTIN         MOCLDY    70  70 100 SE5       30.05F

$$

MSZ076-079-270600-
INTERIOR SOUTHEAST MISSISSIPPI

CITY           SKY/WX    TMP DP  RH WIND       PRES   REMARKS
LEAKESVILLE*     N/A     68  66  94 S5        30.01S
AGRICOLA*        N/A     68  68 100 CALM      30.01F

$$

MARINE OBSERVATIONS

STATION/POSITION TIME  TEMP    WIND        PRES    WAVE
                       AIR SEA DIR/SP/G            HT/PER
                 (UTC) (F)     (DEG/KT/KT) (MB)    (FT/S)
PASCAGOULA       0448   72     150/ 12/ 14 1016.7F
PETIT BOIS ISLND 0448   71     160/ 10/ 12 1017.6F
GRAND BAY        0330   72     160/ 11     1018.0S
KATRINA CUT      0430          170/ 12     1016.9F
CEDAR POINT      0430   71     170/ 13     1017.3S
E DAUPHIN ISLAND 0400   71     160/ 11/ 13 1017.2F
MIDDLE BAY LIGHT 0400   71     150/ 10     1018.0
USCG MOBILE BAY  0448   71 71  180/  5/ 12 1017.8F
STATE DOCKS      0442   71 67              1017.2F
MEAHER PARK      0430   71     160/  9     1017.6F
WEEKS BAY        0345   71                   N/A
FORT MORGAN      0448   71     170/ 15/ 17   N/A
12 S ORANGE BCH  0350   71 70  160/ 10/ 12 1017.5F   3/ 7
PENSACOLA BAY    0442   71 72  180/  8/ 10 1017.8F
64 S DAUPHIN ISL 0450   72 73  150/ 16/ 17 1017.5F   4/ 5
67 S FORT MORGAN 0430   71     160/ 16     1017.6F

$$

SELECTED LOCATIONS ACROSS THE REGION

CITY           SKY/WX    TMP DP  RH WIND       PRES   REMARKS
NEW ORLEANS    MOCLDY    70  69  97 SE9       29.98F
GULFPORT       CLOUDY    72  71  97 SE10      30.00F
PASCAGOULA AP  MOCLDY    71  67  87 S10       30.02F
PASCAGOULA*    NOT AVBL
HATTIESBURG    MOCLDY    70  66  87 S12       30.00F
LAUREL         MOCLDY    66  63  88 S9        30.01F
MERIDIAN       CLEAR     68  64  87 S9        29.99S
JACKSON        CLOUDY    70  63  78 S12       29.95S
MONTGOMERY     CLEAR     70  62  76 S9        30.04F
TROY           CLEAR     64  63  96 S5        30.07F
ASHFORD*         N/A     66  66 100 S6        30.06F
DOTHAN         MOCLDY    66  65  96 SW6       30.11S
PANAMA CITY    PTCLDY    62  61  96 CALM      30.07S FOG

$$





USA.gov is the U.S. government's official web portal to all federal, state and local government web resources and services.